Regional Weather Roundup
Issued by NWS

Home | Current Version | Previous Version | Graphics & Text | Print | Product List | Glossary On
Versions: 1 2 3 4 5 6 7 8 9 10 11 12 13 14 15 16 17 18 19 20 21 22 23 24 25 26 27 28 29 30 31 32 33 34 35 36 37 38 39 40 41 42 43 44 45 46 47 48 49
000
ASUS45 KCYS 172110
RWRWY

WYOMING REGIONAL WEATHER ROUNDUP
NATIONAL WEATHER SERVICE CHEYENNE WY
200 PM MST WED DEC 17 2014

NOTE:  "FAIR" INDICATES FEW OR NO CLOUDS BELOW 12,000 FEET
WITH NO SIGNIFICANT WEATHER AND/OR OBSTRUCTIONS TO VISIBILITY.

WYZ001-172200-
YELLOWSTONE NATIONAL PARK

CITY           SKY/WX    TMP DP  RH WIND       PRES   REMARKS
LK YELLOWSTONE   N/A     25  18  74 VRB3      29.92F
W YELLOWSTONE  NOT AVBL

$$
WYZ002>013-054>058-071-098>099-172200-
NORTHERN WYOMING

CITY           SKY/WX    TMP DP  RH WIND       PRES   REMARKS
JACKSON        CLOUDY    32  25  74 CALM      29.94F
CODY           FAIR      25  23  93 NE3       29.88F
GREYBULL       FAIR      24  17  74 SW5       29.94F WCI  18
WORLAND        FAIR      17  12  80 SW6       29.93F WCI   9
SHERIDAN       FAIR      22  17  81 S6        29.92F WCI  14
BUFFALO        CLOUDY    33  23  66 NW5       29.91S WCI  29
GILLETTE       FAIR      30  20  66 W9        29.91S WCI  22
HULETT           N/A    N/A N/A N/A MISG        N/A
NEWCASTLE      CLOUDY    21  21 100 SW3       29.93F FOG

$$
WYZ014>020-022>026-101>103-172200-
CENTRAL WYOMING

CITY           SKY/WX    TMP DP  RH WIND       PRES   REMARKS
BIG PINEY      FAIR      34  19  54 E7        29.94F WCI  28
PINEDALE       FAIR      32  19  59 W6        29.94F WCI  26
DUBOIS         MOCLDY    32  19  59 NW15      29.88S WCI  22
LANDER         FAIR      16   9  74 CALM      29.91F
RIVERTON       FOG       18  14  84 NE5       29.93F VSB 1/4 WCI  11
CASPER         FAIR      33  22  63 SW13      29.90S WCI  24
DOUGLAS        FAIR      40  23  50 NW12      29.89F WCI  33

$$
WYZ021-027>030-104>119-172200-
SOUTHERN WYOMING

CITY           SKY/WX    TMP DP  RH WIND       PRES   REMARKS
EVANSTON       CLOUDY    35  20  54 SW3       29.93F
KEMMERER       FAIR      36  18  48 SW10      29.93F WCI  28
FORT BRIDGER   FAIR      38  21  50 NW5       29.96S WCI  35
ROCK SPRINGS   FAIR      26  18  71 NE3       29.95F
DIXON          CLOUDY    27  23  83 CALM      29.99S
RAWLINS        FAIR      32  21  64 SW13      29.93S WCI  22
SARATOGA       CLOUDY    30  23  74 CALM      29.94S
LARAMIE        FAIR      35  21  56 NW8       29.89F WCI  29
CHEYENNE       CLOUDY    45  21  38 SW6       29.88S
TORRINGTON     FAIR      25  20  81 SE9       29.91F WCI  15
PINE BLUFFS    FAIR      43  28  56 CALM      29.90S

$$



USA.gov is the U.S. government's official web portal to all federal, state and local government web resources and services.